Alyeska Resort
Hourly Weather - Mid Mountian Site
ALY_MID_HR 6/23/2017
CLICK TO VIEW GRAPH!!

        DATE  TIME   Air   H2o   H2o   New  Snow  BATT   Rel
                    Temp  Inch Since  Snow Depth  Volt  Hum%
                      F   1HR  0600   1HR         AVG   AVG

   6/23/2017 15:00    49  0.00  0.03  52.7  1.92 13.19    97
   6/23/2017 14:00    48  0.00  0.03  50.7  4.42 13.21    97
   6/23/2017 13:00    47  0.00  0.03  49.0  0.82 13.21    98
   6/23/2017 12:00    46  0.00  0.03  48.2  1.67 13.22    98
   6/23/2017 11:00    46  0.00  0.03  48.0  1.83 13.22    98
   6/23/2017 10:00    46  0.01  0.03  47.7  1.72 13.22    98
   6/23/2017 09:00    46  0.01  0.02  48.0  0.76 13.22    98
   6/23/2017 08:00    46  0.00  0.01  48.2  3.99 13.22    97
   6/23/2017 07:00    46  0.01  0.01  48.6  0.42 13.21    98
   6/23/2017 06:00    46  0.00  0.07  49.0  0.11 13.21    98
   6/23/2017 05:00    46  0.01  0.07  49.4  0.16 13.20    97
   6/23/2017 04:00    47  0.01  0.06  50.3  0.63 13.20    97
   6/23/2017 03:00    47  0.01  0.05  51.6  1.82 13.19    97
   6/23/2017 02:00    47  0.00  0.04  53.9  0.19 13.19    98
   6/23/2017 01:00    47  0.02  0.04  56.6  1.25 13.17    96
   6/22/2017 24:00    48  0.02  0.02  57.7  1.09 13.16    94
   6/22/2017 23:00    49  0.00  0.00  57.3  0.92 13.15    91
   6/22/2017 22:00    50  0.00  0.00  54.0  3.71 13.14    89
   6/22/2017 21:00    51  0.00  0.00  52.0  3.07 13.14    88
   6/22/2017 20:00    51  0.00  0.00  51.0  2.13 13.13    86
   6/22/2017 19:00    53  0.00  0.00  50.4  1.74 13.13    84
   6/22/2017 18:00    54  0.00  0.00  50.8  0.34 13.13    79
   6/22/2017 17:00    53  0.00  0.00  51.4  0.04 13.13    80
   6/22/2017 16:00    53  0.00  0.00  52.2  1.94 13.14    81


CLICK TO VIEW GRAPH!!